Hourly Weather Rusinka

Today, 19 April, Monday

Time Temperature Precipitation Wind Pressure Humidity
00:00 +4°C° 0 mm 3 mps 748 mmHg 87%
01:00 +4°C° 0 mm 3 mps 748 mmHg 90%
02:00 +3°C° 0 mm 3 mps 748 mmHg 93%
03:00 +3°C° 0 mm 3 mps 748 mmHg 93%
04:00 +3°C° 0 mm 3 mps 747 mmHg 93%
05:00 +2°C° 0 mm 3 mps 747 mmHg 93%
06:00 +4°C° 0 mm 3 mps 747 mmHg 86%
07:00 +5°C° 0 mm 4 mps 747 mmHg 79%
08:00 +6°C° 0 mm 4 mps 747 mmHg 72%
09:00 +7°C° 0 mm 5 mps 747 mmHg 71%
10:00 +8°C° 0 mm 5 mps 747 mmHg 70%
11:00 +9°C° 0 mm 6 mps 747 mmHg 69%
12:00 +9°C° 0.1 mm 6 mps 747 mmHg 67%
13:00 +10°C° 0.1 mm 6 mps 747 mmHg 65%
14:00 +10°C° 0.1 mm 6 mps 747 mmHg 63%
15:00 +9°C° 0.1 mm 6 mps 747 mmHg 67%
16:00 +9°C° 0.1 mm 5 mps 747 mmHg 71%
17:00 +8°C° 0.1 mm 5 mps 747 mmHg 75%
18:00 +8°C° 0 mm 5 mps 747 mmHg 78%
19:00 +7°C° 0 mm 5 mps 747 mmHg 81%
20:00 +6°C° 0 mm 4 mps 747 mmHg 84%
21:00 +6°C° 0 mm 4 mps 746 mmHg 84%
22:00 +6°C° 0 mm 4 mps 746 mmHg 84%
23:00 +6°C° 0 mm 4 mps 746 mmHg 84%

Tomorrow, 20 April, Tuesday

Time Temperature Precipitation Wind Pressure Humidity
00:00 +5°C° 0 mm 4 mps 746 mmHg 85%
01:00 +5°C° 0 mm 4 mps 745 mmHg 86%
02:00 +5°C° 0 mm 4 mps 745 mmHg 86%
03:00 +5°C° 0.1 mm 4 mps 745 mmHg 87%
04:00 +4°C° 0.1 mm 4 mps 744 mmHg 87%
05:00 +3°C° 0.1 mm 5 mps 744 mmHg 87%
06:00 +3°C° 0.2 mm 5 mps 744 mmHg 90%
07:00 +4°C° 0.2 mm 4 mps 744 mmHg 92%
08:00 +4°C° 0.2 mm 4 mps 744 mmHg 94%
09:00 +4°C° 0 mm 4 mps 744 mmHg 93%
10:00 +4°C° 0 mm 4 mps 743 mmHg 93%
11:00 +4°C° 0 mm 4 mps 743 mmHg 92%
12:00 +4°C° 0 mm 4 mps 743 mmHg 92%
13:00 +4°C° 0 mm 4 mps 743 mmHg 93%
14:00 +4°C° 0 mm 4 mps 742 mmHg 93%
15:00 +3°C° 0 mm 4 mps 742 mmHg 94%
16:00 +3°C° 0 mm 4 mps 742 mmHg 95%
17:00 +3°C° 0 mm 4 mps 741 mmHg 95%
18:00 +3°C° 0 mm 3 mps 741 mmHg 95%
19:00 +3°C° 0 mm 3 mps 741 mmHg 95%
20:00 +3°C° 0 mm 3 mps 741 mmHg 96%
21:00 +3°C° 0.1 mm 3 mps 740 mmHg 96%
22:00 +3°C° 0.1 mm 3 mps 740 mmHg 96%
23:00 +4°C° 0.1 mm 2 mps 739 mmHg 97%

Day after tomorrow, 21 April, Wednesday

Time Temperature Precipitation Wind Pressure Humidity
00:00 +4°C° 0.1 mm 2 mps 739 mmHg 96%
01:00 +4°C° 0.1 mm 2 mps 739 mmHg 96%
02:00 +4°C° 0.1 mm 2 mps 739 mmHg 95%
03:00 +3°C° 0.1 mm 3 mps 738 mmHg 96%
04:00 +3°C° 0.1 mm 3 mps 738 mmHg 96%
05:00 +3°C° 0.1 mm 3 mps 738 mmHg 96%
06:00 +3°C° 0 mm 3 mps 738 mmHg 94%
07:00 +3°C° 0 mm 3 mps 738 mmHg 92%
08:00 +3°C° 0 mm 3 mps 738 mmHg 89%
09:00 +4°C° 0 mm 4 mps 738 mmHg 84%
10:00 +4°C° 0 mm 4 mps 738 mmHg 79%
11:00 +5°C° 0 mm 4 mps 738 mmHg 73%
12:00 +5°C° 0 mm 4 mps 738 mmHg 71%
13:00 +6°C° 0 mm 4 mps 738 mmHg 69%
14:00 +7°C° 0 mm 4 mps 738 mmHg 67%
15:00 +8°C° 0.1 mm 3 mps 738 mmHg 66%
16:00 +8°C° 0.1 mm 3 mps 738 mmHg 66%
17:00 +9°C° 0.1 mm 3 mps 738 mmHg 66%
18:00 +8°C° 0 mm 3 mps 738 mmHg 72%
19:00 +7°C° 0 mm 3 mps 738 mmHg 79%
20:00 +5°C° 0 mm 4 mps 738 mmHg 85%
21:00 +5°C° 0.1 mm 3 mps 738 mmHg 87%
22:00 +5°C° 0.1 mm 3 mps 738 mmHg 88%
23:00 +5°C° 0.1 mm 3 mps 738 mmHg 90%

22 April, Thursday

Time Temperature Precipitation Wind Pressure Humidity
00:00 +5°C° 0 mm 3 mps 739 mmHg 91%
01:00 +4°C° 0 mm 3 mps 739 mmHg 92%
02:00 +3°C° 0 mm 3 mps 739 mmHg 93%
03:00 +3°C° 0 mm 3 mps 739 mmHg 93%
04:00 +3°C° 0 mm 3 mps 739 mmHg 92%
05:00 +3°C° 0 mm 3 mps 740 mmHg 92%
06:00 +4°C° 0 mm 3 mps 740 mmHg 86%
07:00 +7°C° 0 mm 3 mps 740 mmHg 81%
08:00 +8°C° 0 mm 4 mps 740 mmHg 76%
09:00 +10°C° 0.3 mm 4 mps 740 mmHg 73%
10:00 +10°C° 0.3 mm 5 mps 741 mmHg 69%
11:00 +13°C° 0.3 mm 6 mps 741 mmHg 66%
12:00 +13°C° 0.5 mm 6 mps 741 mmHg 62%
13:00 +14°C° 0.5 mm 6 mps 741 mmHg 58%
14:00 +14°C° 0.5 mm 7 mps 741 mmHg 54%
15:00 +14°C° 0.1 mm 6 mps 741 mmHg 57%
16:00 +13°C° 0.1 mm 5 mps 741 mmHg 60%
17:00 +12°C° 0.1 mm 4 mps 742 mmHg 63%
18:00 +11°C° 0 mm 3 mps 742 mmHg 67%
19:00 +10°C° 0 mm 3 mps 742 mmHg 70%
20:00 +8°C° 0 mm 2 mps 742 mmHg 74%
21:00 +8°C° 0 mm 3 mps 742 mmHg 75%
22:00 +8°C° 0 mm 3 mps 742 mmHg 76%
23:00 +7°C° 0 mm 4 mps 741 mmHg 77%

23 April, Friday

Time Temperature Precipitation Wind Pressure Humidity
00:00 +7°C° 0 mm 4 mps 741 mmHg 80%
01:00 +7°C° 0 mm 5 mps 741 mmHg 84%
02:00 +7°C° 0 mm 5 mps 740 mmHg 88%
03:00 +6°C° 0 mm 5 mps 740 mmHg 90%
04:00 +6°C° 0 mm 5 mps 740 mmHg 91%
05:00 +6°C° 0 mm 4 mps 740 mmHg 93%
06:00 +5°C° 0.2 mm 4 mps 740 mmHg 93%
07:00 +5°C° 0.2 mm 4 mps 740 mmHg 92%
08:00 +5°C° 0.2 mm 4 mps 740 mmHg 92%
09:00 +4°C° 1.1 mm 4 mps 741 mmHg 93%
10:00 +3°C° 1.1 mm 3 mps 741 mmHg 95%
11:00 +2°C° 1.1 mm 3 mps 741 mmHg 96%
12:00 +2°C° 0.9 mm 3 mps 741 mmHg 93%
13:00 +3°C° 0.9 mm 3 mps 741 mmHg 90%
14:00 +3°C° 0.9 mm 3 mps 742 mmHg 87%
15:00 +4°C° 0.1 mm 3 mps 741 mmHg 85%
16:00 +5°C° 0.1 mm 4 mps 741 mmHg 82%
17:00 +5°C° 0.1 mm 5 mps 741 mmHg 79%
18:00 +4°C° 0.1 mm 4 mps 741 mmHg 81%
19:00 +4°C° 0.1 mm 4 mps 741 mmHg 84%
20:00 +3°C° 0.1 mm 3 mps 741 mmHg 86%
21:00 +2°C° 0 mm 3 mps 741 mmHg 88%
22:00 +2°C° 0 mm 3 mps 741 mmHg 89%
23:00 +1°C° 0 mm 3 mps 741 mmHg 91%

24 April, Saturday

Time Temperature Precipitation Wind Pressure Humidity
00:00 +1°C° 0 mm 3 mps 741 mmHg 92%
01:00 0°C° 0 mm 3 mps 741 mmHg 94%
02:00 0°C° 0 mm 3 mps 741 mmHg 95%
03:00 -1°C° 0 mm 4 mps 741 mmHg 92%
04:00 -1°C° 0 mm 4 mps 741 mmHg 88%
05:00 0°C° 0 mm 5 mps 741 mmHg 85%
06:00 0°C° 0 mm 5 mps 741 mmHg 82%
07:00 0°C° 0 mm 5 mps 742 mmHg 79%
08:00 0°C° 0 mm 5 mps 742 mmHg 77%
09:00 +1°C° 0.2 mm 6 mps 742 mmHg 68%
10:00 +2°C° 0.2 mm 6 mps 742 mmHg 60%
11:00 +3°C° 0.2 mm 7 mps 742 mmHg 51%
12:00 +4°C° 0 mm 6 mps 742 mmHg 47%
13:00 +5°C° 0 mm 6 mps 742 mmHg 43%
14:00 +5°C° 0 mm 6 mps 743 mmHg 38%
15:00 +6°C° 0 mm 5 mps 743 mmHg 42%
16:00 +6°C° 0 mm 4 mps 743 mmHg 46%
17:00 +6°C° 0 mm 4 mps 743 mmHg 50%
18:00 +4°C° 0.1 mm 3 mps 743 mmHg 60%
19:00 +4°C° 0.1 mm 2 mps 743 mmHg 69%
20:00 +3°C° 0.1 mm 2 mps 743 mmHg 79%
21:00 +3°C° 0.3 mm 1 mps 743 mmHg 85%
22:00 +3°C° 0.3 mm 1 mps 742 mmHg 90%
23:00 +2°C° 0.3 mm 1 mps 742 mmHg 96%
Show more